Time,TemperatureF,DewpointF,PressureIn,WindDirection,WindDirectionDegrees,WindSpeedMPH,WindSpeedGustMPH,Humidity,HourlyPrecipIn,Conditions,Clouds,dailyrainin,SoftwareType,DateUTC
2013-09-07 00:01:00,52.9,44.8,30.13,West,259,0.0,0.0,74,0.00,,,0.00,WeatherCatV1.15B25,2013-09-07 04:01:00,
2013-09-07 00:06:00,52.8,44.7,30.13,West,259,0.0,0.0,74,0.00,,,0.00,WeatherCatV1.15B25,2013-09-07 04:06:00,
2013-09-07 00:11:00,52.7,44.6,30.12,West,259,0.0,0.0,74,0.00,,,0.00,WeatherCatV1.15B25,2013-09-07 04:11:00,
2013-09-07 00:16:00,52.6,44.9,30.12,West,259,0.0,0.0,75,0.00,,,0.00,WeatherCatV1.15B25,2013-09-07 04:16:00,
2013-09-07 00:21:00,52.6,45.3,30.12,West,259,0.0,0.0,76,0.00,,,0.00,WeatherCatV1.15B25,2013-09-07 04:21:00,
2013-09-07 00:26:00,52.5,45.5,30.12,West,259,0.0,0.0,77,0.00,,,0.00,WeatherCatV1.15B25,2013-09-07 04:26:00,
2013-09-07 00:31:00,52.5,46.2,30.12,West,259,0.0,0.0,79,0.00,,,0.00,WeatherCatV1.15B25,2013-09-07 04:31:00,
2013-09-07 00:36:00,52.5,45.8,30.12,West,259,0.0,0.0,78,0.00,,,0.00,WeatherCatV1.15B25,2013-09-07 04:36:00,
2013-09-07 00:41:00,52.5,45.5,30.12,West,259,0.0,0.0,77,0.00,,,0.00,WeatherCatV1.15B25,2013-09-07 04:41:00,
2013-09-07 00:46:00,52.4,45.4,30.12,West,259,0.0,0.0,77,0.00,,,0.00,WeatherCatV1.15B25,2013-09-07 04:46:00,
2013-09-07 00:51:00,52.4,45.7,30.12,West,259,0.0,0.0,78,0.00,,,0.00,WeatherCatV1.15B25,2013-09-07 04:51:00,
2013-09-07 00:56:00,52.4,46.1,30.12,West,259,0.0,0.0,79,0.00,,,0.00,WeatherCatV1.15B25,2013-09-07 04:56:00,
2013-09-07 01:01:00,52.4,46.4,30.12,West,259,0.0,0.0,80,0.00,,,0.00,WeatherCatV1.15B25,2013-09-07 05:01:00,
2013-09-07 01:06:00,52.4,46.1,30.13,West,259,0.0,0.0,79,0.00,,,0.00,WeatherCatV1.15B25,2013-09-07 05:06:00,
2013-09-07 01:11:00,52.3,45.6,30.13,West,259,0.0,0.0,78,0.00,,,0.00,WeatherCatV1.15B25,2013-09-07 05:11:00,
2013-09-07 01:16:00,52.2,45.9,30.13,West,259,0.0,0.0,79,0.00,,,0.00,WeatherCatV1.15B25,2013-09-07 05:16:00,
2013-09-07 01:21:00,52.2,46.5,30.13,West,259,0.0,0.0,81,0.00,,,0.00,WeatherCatV1.15B25,2013-09-07 05:21:00,
2013-09-07 01:26:00,52.2,46.5,30.12,West,259,0.0,0.0,81,0.00,,,0.00,WeatherCatV1.15B25,2013-09-07 05:26:00,
2013-09-07 01:31:00,52.1,46.1,30.13,West,259,0.0,0.0,80,0.00,,,0.00,WeatherCatV1.15B25,2013-09-07 05:31:00,
2013-09-07 01:36:00,52.1,45.8,30.12,West,259,0.0,0.0,79,0.00,,,0.00,WeatherCatV1.15B25,2013-09-07 05:36:00,
2013-09-07 01:41:00,51.9,45.6,30.12,West,259,0.0,0.0,79,0.00,,,0.00,WeatherCatV1.15B25,2013-09-07 05:41:00,
2013-09-07 01:46:00,51.9,45.3,30.13,West,259,0.0,0.0,78,0.00,,,0.00,WeatherCatV1.15B25,2013-09-07 05:46:00,
2013-09-07 01:51:00,51.8,45.5,30.13,West,259,0.0,0.0,79,0.00,,,0.00,WeatherCatV1.15B25,2013-09-07 05:51:00,
2013-09-07 01:56:00,51.8,45.2,30.12,West,259,0.0,0.0,78,0.00,,,0.00,WeatherCatV1.15B25,2013-09-07 05:56:00,
2013-09-07 02:01:00,51.7,45.7,30.12,West,259,0.0,0.0,80,0.00,,,0.00,WeatherCatV1.15B25,2013-09-07 06:01:00,
2013-09-07 02:06:00,51.7,45.7,30.12,West,259,0.0,0.0,80,0.00,,,0.00,WeatherCatV1.15B25,2013-09-07 06:06:00,
2013-09-07 02:11:00,51.7,45.4,30.12,West,259,0.0,0.0,79,0.00,,,0.00,WeatherCatV1.15B25,2013-09-07 06:11:00,
2013-09-07 02:16:00,51.6,45.3,30.12,West,259,0.0,0.0,79,0.00,,,0.00,WeatherCatV1.15B25,2013-09-07 06:16:00,
2013-09-07 02:21:00,51.6,45.6,30.12,West,259,0.0,0.0,80,0.00,,,0.00,WeatherCatV1.15B25,2013-09-07 06:21:00,
2013-09-07 02:26:00,51.6,45.6,30.12,West,259,0.0,0.0,80,0.00,,,0.00,WeatherCatV1.15B25,2013-09-07 06:26:00,
2013-09-07 02:31:00,51.5,45.2,30.12,West,259,0.0,0.0,79,0.00,,,0.00,WeatherCatV1.15B25,2013-09-07 06:31:00,
2013-09-07 02:36:00,51.4,45.1,30.12,West,259,0.0,0.0,79,0.00,,,0.00,WeatherCatV1.15B25,2013-09-07 06:36:00,
2013-09-07 02:41:00,51.3,45.0,30.11,West,259,0.0,0.0,79,0.00,,,0.00,WeatherCatV1.15B25,2013-09-07 06:41:00,
2013-09-07 02:46:00,51.3,45.0,30.11,West,259,0.0,0.0,79,0.00,,,0.00,WeatherCatV1.15B25,2013-09-07 06:46:00,
2013-09-07 02:51:00,51.2,44.9,30.11,West,259,0.0,0.0,79,0.00,,,0.00,WeatherCatV1.15B25,2013-09-07 06:51:00,
2013-09-07 02:56:00,51.2,45.9,30.11,West,259,0.0,0.0,82,0.00,,,0.00,WeatherCatV1.15B25,2013-09-07 06:56:00,
2013-09-07 03:01:00,51.2,46.2,30.11,West,259,0.0,0.0,83,0.00,,,0.00,WeatherCatV1.15B25,2013-09-07 07:01:00,
2013-09-07 03:06:00,51.1,46.1,30.11,West,259,0.0,0.0,83,0.00,,,0.00,WeatherCatV1.15B25,2013-09-07 07:06:00,
2013-09-07 03:11:00,51.0,45.7,30.11,West,259,0.0,0.0,82,0.00,,,0.00,WeatherCatV1.15B25,2013-09-07 07:11:00,
2013-09-07 03:16:00,50.9,45.3,30.11,West,259,0.0,0.0,81,0.00,,,0.00,WeatherCatV1.15B25,2013-09-07 07:16:00,
2013-09-07 03:21:00,50.9,45.6,30.11,West,259,0.0,0.0,82,0.00,,,0.00,WeatherCatV1.15B25,2013-09-07 07:21:00,
2013-09-07 03:26:00,50.9,45.9,30.11,West,259,0.0,0.0,83,0.00,,,0.00,WeatherCatV1.15B25,2013-09-07 07:26:00,
2013-09-07 03:31:00,50.9,46.2,30.10,West,259,0.0,0.0,84,0.00,,,0.00,WeatherCatV1.15B25,2013-09-07 07:31:00,
2013-09-07 03:36:00,50.9,46.6,30.11,West,259,0.0,0.0,85,0.00,,,0.00,WeatherCatV1.15B25,2013-09-07 07:36:00,
2013-09-07 03:41:00,50.9,46.6,30.11,West,259,0.0,0.0,85,0.00,,,0.00,WeatherCatV1.15B25,2013-09-07 07:41:00,
2013-09-07 03:46:00,50.8,46.8,30.11,West,259,0.0,0.0,86,0.00,,,0.00,WeatherCatV1.15B25,2013-09-07 07:46:00,
2013-09-07 03:51:00,50.8,46.8,30.11,West,259,0.0,0.0,86,0.00,,,0.00,WeatherCatV1.15B25,2013-09-07 07:51:00,
2013-09-07 03:56:00,50.8,46.8,30.11,West,259,0.0,0.0,86,0.00,,,0.00,WeatherCatV1.15B25,2013-09-07 07:56:00,
2013-09-07 04:01:00,50.6,46.6,30.11,West,259,0.0,0.0,86,0.00,,,0.00,WeatherCatV1.15B25,2013-09-07 08:01:00,
2013-09-07 04:06:00,50.5,46.5,30.11,West,259,0.0,0.0,86,0.00,,,0.00,WeatherCatV1.15B25,2013-09-07 08:06:00,
2013-09-07 04:11:00,50.5,46.8,30.11,West,259,0.0,0.0,87,0.00,,,0.00,WeatherCatV1.15B25,2013-09-07 08:11:00,
2013-09-07 04:16:00,50.4,46.7,30.11,West,259,0.0,0.0,87,0.00,,,0.00,WeatherCatV1.15B25,2013-09-07 08:16:00,
2013-09-07 04:21:00,50.3,46.6,30.11,West,259,0.0,0.0,87,0.00,,,0.00,WeatherCatV1.15B25,2013-09-07 08:21:00,
2013-09-07 04:26:00,50.3,46.9,30.11,West,259,0.0,0.0,88,0.00,,,0.00,WeatherCatV1.15B25,2013-09-07 08:26:00,
2013-09-07 04:31:00,50.2,46.8,30.11,West,259,0.0,0.0,88,0.00,,,0.00,WeatherCatV1.15B25,2013-09-07 08:31:00,
2013-09-07 04:36:00,50.2,46.8,30.11,West,259,0.0,0.0,88,0.00,,,0.00,WeatherCatV1.15B25,2013-09-07 08:36:00,
2013-09-07 04:41:00,50.2,46.8,30.10,West,259,0.0,0.0,88,0.00,,,0.00,WeatherCatV1.15B25,2013-09-07 08:41:00,
2013-09-07 04:46:00,50.2,46.8,30.10,West,259,0.0,0.0,88,0.00,,,0.00,WeatherCatV1.15B25,2013-09-07 08:46:00,
2013-09-07 04:51:00,50.1,46.1,30.10,West,259,0.0,0.0,86,0.00,,,0.00,WeatherCatV1.15B25,2013-09-07 08:51:00,
2013-09-07 04:56:00,50.1,46.1,30.10,West,259,0.0,0.0,86,0.00,,,0.00,WeatherCatV1.15B25,2013-09-07 08:56:00,
2013-09-07 05:01:00,50.2,46.8,30.10,West,259,0.0,0.0,88,0.00,,,0.00,WeatherCatV1.15B25,2013-09-07 09:01:00,
2013-09-07 05:06:00,50.3,46.9,30.10,West,259,0.0,0.0,88,0.00,,,0.00,WeatherCatV1.15B25,2013-09-07 09:06:00,
2013-09-07 05:11:00,50.3,46.9,30.10,West,259,0.0,0.0,88,0.00,,,0.00,WeatherCatV1.15B25,2013-09-07 09:11:00,
2013-09-07 05:16:00,50.3,46.6,30.10,West,259,0.0,0.0,87,0.00,,,0.00,WeatherCatV1.15B25,2013-09-07 09:16:00,
2013-09-07 05:21:00,50.3,46.0,30.10,West,259,0.0,0.0,85,0.00,,,0.00,WeatherCatV1.15B25,2013-09-07 09:21:00,
2013-09-07 05:26:00,50.4,46.1,30.10,West,259,0.0,0.0,85,0.00,,,0.00,WeatherCatV1.15B25,2013-09-07 09:26:00,
2013-09-07 05:31:00,50.4,45.7,30.10,West,259,0.0,0.0,84,0.00,,,0.00,WeatherCatV1.15B25,2013-09-07 09:31:00,
2013-09-07 05:36:00,50.3,45.7,30.10,West,259,0.0,0.0,84,0.00,,,0.00,WeatherCatV1.15B25,2013-09-07 09:36:00,
2013-09-07 05:41:00,50.3,46.0,30.09,West,259,0.0,0.0,85,0.00,,,0.00,WeatherCatV1.15B25,2013-09-07 09:41:00,
2013-09-07 05:46:00,50.2,46.5,30.09,West,259,0.0,0.0,87,0.00,,,0.00,WeatherCatV1.15B25,2013-09-07 09:46:00,
2013-09-07 05:51:00,50.2,46.8,30.09,West,259,0.0,0.0,88,0.00,,,0.00,WeatherCatV1.15B25,2013-09-07 09:51:00,
2013-09-07 05:56:00,50.3,47.2,30.09,West,259,0.0,0.0,89,0.00,,,0.00,WeatherCatV1.15B25,2013-09-07 09:56:00,
2013-09-07 06:01:00,50.3,47.2,30.09,West,259,0.0,0.0,89,0.00,,,0.00,WeatherCatV1.15B25,2013-09-07 10:01:00,
2013-09-07 06:06:00,50.3,46.9,30.09,West,259,0.0,0.0,88,0.00,,,0.00,WeatherCatV1.15B25,2013-09-07 10:06:00,
2013-09-07 06:11:00,50.3,46.6,30.09,West,259,0.0,0.0,87,0.00,,,0.00,WeatherCatV1.15B25,2013-09-07 10:11:00,
2013-09-07 06:16:00,50.3,46.9,30.09,West,259,0.0,0.0,88,0.00,,,0.00,WeatherCatV1.15B25,2013-09-07 10:16:00,
2013-09-07 06:21:00,50.3,46.9,30.09,West,259,0.0,0.0,88,0.00,,,0.00,WeatherCatV1.15B25,2013-09-07 10:21:00,
2013-09-07 06:26:00,50.4,47.0,30.09,West,259,0.0,0.0,88,0.00,,,0.00,WeatherCatV1.15B25,2013-09-07 10:26:00,
2013-09-07 06:31:00,50.4,47.0,30.09,West,259,0.0,0.0,88,0.00,,,0.00,WeatherCatV1.15B25,2013-09-07 10:31:00,
2013-09-07 06:36:00,50.5,46.8,30.09,West,259,0.0,0.0,87,0.00,,,0.00,WeatherCatV1.15B25,2013-09-07 10:36:00,
2013-09-07 06:41:00,50.7,46.4,30.09,West,259,0.0,0.0,85,0.00,,,0.00,WeatherCatV1.15B25,2013-09-07 10:41:00,
2013-09-07 06:46:00,51.0,46.0,30.09,West,259,0.0,0.0,83,0.00,,,0.00,WeatherCatV1.15B25,2013-09-07 10:46:00,
2013-09-07 06:51:00,51.2,45.9,30.09,West,259,0.0,0.0,82,0.00,,,0.00,WeatherCatV1.15B25,2013-09-07 10:51:00,
2013-09-07 06:56:00,51.5,46.2,30.09,West,259,0.0,0.0,82,0.00,,,0.00,WeatherCatV1.15B25,2013-09-07 10:56:00,
2013-09-07 07:01:00,51.7,46.4,30.09,West,259,0.0,0.0,82,0.00,,,0.00,WeatherCatV1.15B25,2013-09-07 11:01:00,
2013-09-07 07:06:00,51.8,46.5,30.09,West,259,0.0,0.0,82,0.00,,,0.00,WeatherCatV1.15B25,2013-09-07 11:06:00,
2013-09-07 07:11:00,52.0,47.0,30.09,West,259,0.0,0.0,83,0.00,,,0.00,WeatherCatV1.15B25,2013-09-07 11:11:00,
2013-09-07 07:16:00,52.1,47.1,30.09,West,259,1.0,1.0,83,0.00,,,0.00,WeatherCatV1.15B25,2013-09-07 11:16:00,
2013-09-07 07:21:00,52.2,47.5,30.09,South,173,0.0,0.0,84,0.00,,,0.00,WeatherCatV1.15B25,2013-09-07 11:21:00,
2013-09-07 07:26:00,52.3,47.0,30.09,South,173,0.0,0.0,82,0.00,,,0.00,WeatherCatV1.15B25,2013-09-07 11:26:00,
2013-09-07 07:31:00,52.4,46.4,30.09,South,173,0.0,0.0,80,0.00,,,0.00,WeatherCatV1.15B25,2013-09-07 11:31:00,
2013-09-07 07:36:00,52.6,46.6,30.09,South,175,0.0,0.0,80,0.00,,,0.00,WeatherCatV1.15B25,2013-09-07 11:36:00,
2013-09-07 07:41:00,52.7,46.4,30.09,South,175,0.0,0.0,79,0.00,,,0.00,WeatherCatV1.15B25,2013-09-07 11:41:00,
2013-09-07 07:46:00,52.9,46.6,30.09,South,175,0.0,0.0,79,0.00,,,0.00,WeatherCatV1.15B25,2013-09-07 11:46:00,
2013-09-07 07:51:00,53.0,47.0,30.09,South,175,0.0,0.0,80,0.00,,,0.00,WeatherCatV1.15B25,2013-09-07 11:51:00,
2013-09-07 07:56:00,53.2,47.2,30.09,South,175,0.0,0.0,80,0.00,,,0.00,WeatherCatV1.15B25,2013-09-07 11:56:00,
2013-09-07 08:01:00,53.3,47.3,30.08,South,175,0.0,0.0,80,0.00,,,0.00,WeatherCatV1.15B25,2013-09-07 12:01:00,
2013-09-07 08:06:00,53.4,47.4,30.08,South,175,0.0,0.0,80,0.00,,,0.00,WeatherCatV1.15B25,2013-09-07 12:06:00,
2013-09-07 08:11:00,53.5,47.1,30.09,South,175,0.0,0.0,79,0.00,,,0.00,WeatherCatV1.15B25,2013-09-07 12:11:00,
2013-09-07 08:16:00,53.8,47.4,30.08,South,175,0.0,0.0,79,0.00,,,0.00,WeatherCatV1.15B25,2013-09-07 12:16:00,
2013-09-07 08:21:00,54.0,47.6,30.08,South,175,0.0,0.0,79,0.00,,,0.00,WeatherCatV1.15B25,2013-09-07 12:21:00,
2013-09-07 08:26:00,54.2,47.5,30.08,South,175,0.0,0.0,78,0.00,,,0.00,WeatherCatV1.15B25,2013-09-07 12:26:00,
2013-09-07 08:31:00,54.4,48.0,30.08,South,175,0.0,0.0,79,0.00,,,0.00,WeatherCatV1.15B25,2013-09-07 12:31:00,
2013-09-07 08:36:00,54.6,48.2,30.08,South,175,0.0,0.0,79,0.00,,,0.00,WeatherCatV1.15B25,2013-09-07 12:36:00,
2013-09-07 08:41:00,54.8,48.4,30.08,South,175,0.0,0.0,79,0.00,,,0.00,WeatherCatV1.15B25,2013-09-07 12:41:00,
2013-09-07 08:46:00,55.0,47.9,30.07,South,176,0.0,0.0,77,0.00,,,0.00,WeatherCatV1.15B25,2013-09-07 12:46:00,
2013-09-07 08:51:00,55.2,48.1,30.07,South,176,0.0,0.0,77,0.00,,,0.00,WeatherCatV1.15B25,2013-09-07 12:51:00,
2013-09-07 08:56:00,55.5,48.4,30.07,South,176,0.0,0.0,77,0.00,,,0.00,WeatherCatV1.15B25,2013-09-07 12:56:00,
2013-09-07 09:01:00,55.8,48.7,30.07,WNW,300,0.0,0.0,77,0.00,,,0.00,WeatherCatV1.15B25,2013-09-07 13:01:00,
2013-09-07 09:06:00,56.1,49.0,30.08,WNW,288,0.0,0.0,77,0.00,,,0.00,WeatherCatV1.15B25,2013-09-07 13:06:00,
2013-09-07 09:11:00,56.4,48.9,30.08,WNW,285,0.0,0.0,76,0.00,,,0.00,WeatherCatV1.15B25,2013-09-07 13:11:00,
2013-09-07 09:16:00,56.6,49.1,30.08,WNW,285,0.0,0.0,76,0.00,,,0.00,WeatherCatV1.15B25,2013-09-07 13:16:00,
2013-09-07 09:21:00,56.9,49.4,30.08,WSW,258,0.0,0.0,76,0.00,,,0.00,WeatherCatV1.15B25,2013-09-07 13:21:00,
2013-09-07 09:26:00,57.2,49.3,30.08,West,265,0.0,0.0,75,0.00,,,0.00,WeatherCatV1.15B25,2013-09-07 13:26:00,
2013-09-07 09:31:00,57.5,49.6,30.08,West,265,0.0,0.0,75,0.00,,,0.00,WeatherCatV1.15B25,2013-09-07 13:31:00,
2013-09-07 09:36:00,57.8,50.3,30.08,West,265,0.0,0.0,76,0.00,,,0.00,WeatherCatV1.15B25,2013-09-07 13:36:00,
2013-09-07 09:41:00,58.1,50.6,30.08,West,264,0.0,0.0,76,0.00,,,0.00,WeatherCatV1.15B25,2013-09-07 13:41:00,
2013-09-07 09:46:00,58.4,50.5,30.08,West,265,0.0,0.0,75,0.00,,,0.00,WeatherCatV1.15B25,2013-09-07 13:46:00,
2013-09-07 09:51:00,58.7,50.4,30.08,SW,215,0.0,0.0,74,0.00,,,0.00,WeatherCatV1.15B25,2013-09-07 13:51:00,
2013-09-07 09:56:00,59.0,51.4,30.09,SW,215,0.0,0.0,76,0.00,,,0.00,WeatherCatV1.15B25,2013-09-07 13:56:00,
2013-09-07 10:01:00,59.0,50.7,30.08,SW,215,0.0,0.0,74,0.00,,,0.00,WeatherCatV1.15B25,2013-09-07 14:01:00,
2013-09-07 10:06:00,59.3,50.6,30.08,SW,215,0.0,0.0,73,0.00,,,0.00,WeatherCatV1.15B25,2013-09-07 14:06:00,
2013-09-07 10:11:00,59.6,51.7,30.08,SW,215,0.0,0.0,75,0.00,,,0.00,WeatherCatV1.15B25,2013-09-07 14:11:00,
2013-09-07 10:16:00,60.0,52.4,30.08,SW,215,0.0,0.0,76,0.00,,,0.00,WeatherCatV1.15B25,2013-09-07 14:16:00,
2013-09-07 10:21:00,60.3,52.3,30.08,SW,215,0.0,0.0,75,0.00,,,0.00,WeatherCatV1.15B25,2013-09-07 14:21:00,
2013-09-07 10:26:00,60.7,52.4,30.08,SW,215,0.0,0.0,74,0.00,,,0.00,WeatherCatV1.15B25,2013-09-07 14:26:00,
2013-09-07 10:31:00,60.9,52.2,30.08,SW,215,0.0,0.0,73,0.00,,,0.00,WeatherCatV1.15B25,2013-09-07 14:31:00,
2013-09-07 10:36:00,61.3,52.6,30.08,SW,221,0.0,0.0,73,0.00,,,0.00,WeatherCatV1.15B25,2013-09-07 14:36:00,
2013-09-07 10:41:00,61.6,52.1,30.08,SW,221,0.0,0.0,71,0.00,,,0.00,WeatherCatV1.15B25,2013-09-07 14:41:00,
2013-09-07 10:46:00,61.8,52.7,30.08,SW,226,0.0,0.0,72,0.00,,,0.00,WeatherCatV1.15B25,2013-09-07 14:46:00,
2013-09-07 10:51:00,62.1,53.0,30.08,SW,227,0.0,0.0,72,0.00,,,0.00,WeatherCatV1.15B25,2013-09-07 14:51:00,
2013-09-07 10:56:00,62.4,53.2,30.08,SW,227,0.0,1.0,72,0.00,,,0.00,WeatherCatV1.15B25,2013-09-07 14:56:00,
2013-09-07 11:01:00,62.7,53.5,30.08,SW,215,0.0,0.0,72,0.00,,,0.00,WeatherCatV1.15B25,2013-09-07 15:01:00,
2013-09-07 11:06:00,62.9,53.7,30.08,SW,216,0.0,0.0,72,0.00,,,0.00,WeatherCatV1.15B25,2013-09-07 15:06:00,
2013-09-07 11:11:00,63.1,53.5,30.08,SW,216,0.0,0.0,71,0.00,,,0.00,WeatherCatV1.15B25,2013-09-07 15:11:00,
2013-09-07 11:16:00,63.3,53.7,30.07,SW,216,0.0,0.0,71,0.00,,,0.00,WeatherCatV1.15B25,2013-09-07 15:16:00,
2013-09-07 11:21:00,63.6,53.6,30.07,SW,216,0.0,0.0,70,0.00,,,0.00,WeatherCatV1.15B25,2013-09-07 15:21:00,
2013-09-07 11:26:00,63.8,54.2,30.07,SW,226,0.0,0.0,71,0.00,,,0.00,WeatherCatV1.15B25,2013-09-07 15:26:00,
2013-09-07 11:31:00,64.1,53.7,30.07,SW,226,0.0,0.0,69,0.00,,,0.00,WeatherCatV1.15B25,2013-09-07 15:31:00,
2013-09-07 11:36:00,64.3,53.9,30.07,SW,227,0.0,0.0,69,0.00,,,0.00,WeatherCatV1.15B25,2013-09-07 15:36:00,
2013-09-07 11:41:00,64.6,55.0,30.06,SW,227,0.0,0.0,71,0.00,,,0.00,WeatherCatV1.15B25,2013-09-07 15:41:00,
2013-09-07 11:46:00,64.9,54.1,30.06,West,280,0.0,1.0,68,0.00,,,0.00,WeatherCatV1.15B25,2013-09-07 15:46:00,
2013-09-07 11:51:00,65.2,54.0,30.05,West,280,0.0,0.0,67,0.00,,,0.00,WeatherCatV1.15B25,2013-09-07 15:51:00,
2013-09-07 11:56:00,65.4,54.1,30.05,West,280,0.0,0.0,67,0.00,,,0.00,WeatherCatV1.15B25,2013-09-07 15:56:00,
2013-09-07 12:01:00,65.8,54.9,30.05,SW,221,0.0,0.0,68,0.00,,,0.00,WeatherCatV1.15B25,2013-09-07 16:01:00,
2013-09-07 12:06:00,66.0,54.7,30.05,West,273,0.0,1.0,67,0.00,,,0.00,WeatherCatV1.15B25,2013-09-07 16:06:00,
2013-09-07 12:11:00,66.4,55.5,30.04,WSW,243,0.0,0.0,68,0.00,,,0.00,WeatherCatV1.15B25,2013-09-07 16:11:00,
2013-09-07 12:16:00,66.7,55.0,30.04,NW,321,0.0,1.0,66,0.00,,,0.00,WeatherCatV1.15B25,2013-09-07 16:16:00,
2013-09-07 12:21:00,67.2,56.3,30.04,WNW,288,0.0,0.0,68,0.00,,,0.00,WeatherCatV1.15B25,2013-09-07 16:21:00,
2013-09-07 12:26:00,67.5,55.7,30.03,West,277,0.0,0.0,66,0.00,,,0.00,WeatherCatV1.15B25,2013-09-07 16:26:00,
2013-09-07 12:31:00,67.8,56.0,30.03,SSE,147,0.0,0.0,66,0.00,,,0.00,WeatherCatV1.15B25,2013-09-07 16:31:00,
2013-09-07 12:36:00,68.0,55.4,30.03,West,281,0.0,1.0,64,0.00,,,0.00,WeatherCatV1.15B25,2013-09-07 16:36:00,
2013-09-07 12:41:00,68.2,56.8,30.02,West,281,0.0,0.0,67,0.00,,,0.00,WeatherCatV1.15B25,2013-09-07 16:41:00,
2013-09-07 12:46:00,68.3,55.6,30.02,WNW,290,0.0,0.0,64,0.00,,,0.00,WeatherCatV1.15B25,2013-09-07 16:46:00,
2013-09-07 12:51:00,68.4,56.2,30.01,SW,230,0.0,0.0,65,0.00,,,0.00,WeatherCatV1.15B25,2013-09-07 16:51:00,
2013-09-07 12:56:00,68.7,56.9,30.01,West,273,0.0,1.0,66,0.00,,,0.00,WeatherCatV1.15B25,2013-09-07 16:56:00,
2013-09-07 13:01:00,68.9,57.1,30.01,West,274,0.0,0.0,66,0.00,,,0.00,WeatherCatV1.15B25,2013-09-07 17:01:00,
2013-09-07 13:06:00,69.1,55.5,30.01,West,273,0.0,0.0,62,0.00,,,0.00,WeatherCatV1.15B25,2013-09-07 17:06:00,
2013-09-07 13:11:00,69.3,56.6,30.01,West,273,0.0,0.0,64,0.00,,,0.00,WeatherCatV1.15B25,2013-09-07 17:11:00,
2013-09-07 13:16:00,69.4,55.8,30.01,SW,227,0.0,1.0,62,0.00,,,0.00,WeatherCatV1.15B25,2013-09-07 17:16:00,
2013-09-07 13:21:00,69.5,56.3,30.01,WSW,242,0.0,1.0,63,0.00,,,0.00,WeatherCatV1.15B25,2013-09-07 17:21:00,
2013-09-07 13:26:00,69.7,57.4,30.01,WSW,243,0.0,0.0,65,0.00,,,0.00,WeatherCatV1.15B25,2013-09-07 17:26:00,
2013-09-07 13:31:00,69.8,56.6,30.01,WSW,243,0.0,0.0,63,0.00,,,0.00,WeatherCatV1.15B25,2013-09-07 17:31:00,
2013-09-07 13:36:00,69.9,57.2,30.01,WSW,242,0.0,0.0,64,0.00,,,0.00,WeatherCatV1.15B25,2013-09-07 17:36:00,
2013-09-07 13:41:00,70.0,57.2,30.01,WSW,243,0.0,0.0,64,0.00,,,0.00,WeatherCatV1.15B25,2013-09-07 17:41:00,
2013-09-07 13:46:00,70.2,57.0,30.00,WSW,243,0.0,0.0,63,0.00,,,0.00,WeatherCatV1.15B25,2013-09-07 17:46:00,
2013-09-07 13:51:00,70.4,57.2,30.00,West,267,0.0,1.0,63,0.00,,,0.00,WeatherCatV1.15B25,2013-09-07 17:51:00,
2013-09-07 13:56:00,70.4,57.2,30.00,West,267,0.0,0.0,63,0.00,,,0.00,WeatherCatV1.15B25,2013-09-07 17:56:00,
2013-09-07 14:01:00,70.3,57.5,30.00,West,267,0.0,0.0,64,0.00,,,0.00,WeatherCatV1.15B25,2013-09-07 18:01:00,
2013-09-07 14:06:00,70.3,58.4,29.99,West,267,0.0,0.0,66,0.00,,,0.00,WeatherCatV1.15B25,2013-09-07 18:06:00,
2013-09-07 14:12:00,70.3,57.1,29.99,West,267,0.0,0.0,63,0.00,,,0.00,WeatherCatV1.15B25,2013-09-07 18:12:00,
2013-09-07 14:17:00,70.5,59.0,29.99,West,267,0.0,0.0,67,0.00,,,0.00,WeatherCatV1.15B25,2013-09-07 18:17:00,
2013-09-07 14:22:00,70.5,57.3,29.99,West,267,0.0,0.0,63,0.00,,,0.00,WeatherCatV1.15B25,2013-09-07 18:22:00,
2013-09-07 14:27:00,70.5,57.7,29.99,SSW,213,0.0,0.0,64,0.00,,,0.00,WeatherCatV1.15B25,2013-09-07 18:27:00,
2013-09-07 14:32:00,70.3,56.7,29.99,SSW,213,0.0,0.0,62,0.00,,,0.00,WeatherCatV1.15B25,2013-09-07 18:32:00,
2013-09-07 14:37:00,70.2,57.4,29.98,SSW,213,0.0,0.0,64,0.00,,,0.00,WeatherCatV1.15B25,2013-09-07 18:37:00,
2013-09-07 14:42:00,70.0,58.1,29.98,SSW,213,0.0,0.0,66,0.00,,,0.00,WeatherCatV1.15B25,2013-09-07 18:42:00,
2013-09-07 14:47:00,70.0,58.5,29.98,SSW,213,0.0,0.0,67,0.00,,,0.00,WeatherCatV1.15B25,2013-09-07 18:47:00,
2013-09-07 14:52:00,70.1,58.2,29.98,SSW,213,0.0,0.0,66,0.00,,,0.00,WeatherCatV1.15B25,2013-09-07 18:52:00,
2013-09-07 14:57:00,70.1,58.2,29.98,SSW,213,0.0,0.0,66,0.00,,,0.00,WeatherCatV1.15B25,2013-09-07 18:57:00,
2013-09-07 15:02:00,70.2,59.1,29.97,SW,232,0.0,0.0,68,0.00,,,0.00,WeatherCatV1.15B25,2013-09-07 19:02:00,
2013-09-07 15:07:00,70.3,58.8,29.98,SW,232,0.0,0.0,67,0.00,,,0.00,WeatherCatV1.15B25,2013-09-07 19:07:00,
2013-09-07 15:12:00,70.4,58.5,29.97,South,173,0.0,0.0,66,0.00,,,0.00,WeatherCatV1.15B25,2013-09-07 19:12:00,
2013-09-07 15:17:00,70.4,59.3,29.97,South,173,0.0,0.0,68,0.00,,,0.00,WeatherCatV1.15B25,2013-09-07 19:17:00,
2013-09-07 15:22:00,70.4,58.9,29.97,South,183,0.0,0.0,67,0.00,,,0.00,WeatherCatV1.15B25,2013-09-07 19:22:00,
2013-09-07 15:27:00,70.4,58.1,29.97,South,183,0.0,0.0,65,0.00,,,0.00,WeatherCatV1.15B25,2013-09-07 19:27:00,
2013-09-07 15:32:00,70.5,57.7,29.97,South,183,0.0,0.0,64,0.00,,,0.00,WeatherCatV1.15B25,2013-09-07 19:32:00,
2013-09-07 15:37:00,70.4,59.7,29.96,SSW,192,0.0,0.0,69,0.00,,,0.00,WeatherCatV1.15B25,2013-09-07 19:37:00,
2013-09-07 15:42:00,70.4,59.3,29.96,SSW,205,0.0,0.0,68,0.00,,,0.00,WeatherCatV1.15B25,2013-09-07 19:42:00,
2013-09-07 15:47:00,70.3,59.6,29.96,WNW,290,0.0,1.0,69,0.00,,,0.00,WeatherCatV1.15B25,2013-09-07 19:47:00,
2013-09-07 15:52:00,70.3,60.0,29.96,WNW,290,0.0,0.0,70,0.00,,,0.00,WeatherCatV1.15B25,2013-09-07 19:52:00,
2013-09-07 15:57:00,70.4,60.5,29.96,WNW,290,0.0,0.0,71,0.00,,,0.00,WeatherCatV1.15B25,2013-09-07 19:57:00,
2013-09-07 16:02:00,70.5,56.8,29.96,WNW,290,0.0,0.0,62,0.00,,,0.00,WeatherCatV1.15B25,2013-09-07 20:02:00,
2013-09-07 16:07:00,70.5,59.4,29.95,SW,218,0.0,0.0,68,0.00,,,0.00,WeatherCatV1.15B25,2013-09-07 20:07:00,
2013-09-07 16:12:00,70.4,59.3,29.96,SW,219,0.0,0.0,68,0.00,,,0.00,WeatherCatV1.15B25,2013-09-07 20:12:00,
2013-09-07 16:17:00,70.3,59.6,29.96,SW,219,0.0,0.0,69,0.00,,,0.00,WeatherCatV1.15B25,2013-09-07 20:17:00,
2013-09-07 16:22:00,70.0,59.3,29.95,SW,219,0.0,0.0,69,0.00,,,0.00,WeatherCatV1.15B25,2013-09-07 20:22:00,
2013-09-07 16:27:00,69.8,59.2,29.95,SW,219,0.0,0.0,69,0.00,,,0.00,WeatherCatV1.15B25,2013-09-07 20:27:00,
2013-09-07 16:32:00,69.4,58.4,29.95,SW,219,0.0,0.0,68,0.00,,,0.00,WeatherCatV1.15B25,2013-09-07 20:32:00,
2013-09-07 16:37:00,69.1,58.1,29.95,SW,219,0.0,0.0,68,0.00,,,0.00,WeatherCatV1.15B25,2013-09-07 20:37:00,
2013-09-07 16:42:00,68.6,57.6,29.95,SW,219,0.0,1.0,68,0.00,,,0.00,WeatherCatV1.15B25,2013-09-07 20:42:00,
2013-09-07 16:47:00,68.2,57.6,29.95,SW,218,0.0,0.0,69,0.00,,,0.00,WeatherCatV1.15B25,2013-09-07 20:47:00,
2013-09-07 16:52:00,67.9,57.7,29.95,SW,218,0.0,0.0,70,0.00,,,0.00,WeatherCatV1.15B25,2013-09-07 20:52:00,
2013-09-07 16:57:00,67.7,57.9,29.95,SW,219,0.0,0.0,71,0.00,,,0.00,WeatherCatV1.15B25,2013-09-07 20:57:00,
2013-09-07 17:02:00,67.5,57.4,29.95,SW,219,0.0,0.0,70,0.00,,,0.00,WeatherCatV1.15B25,2013-09-07 21:02:00,
2013-09-07 17:07:00,67.2,57.1,29.94,SW,219,0.0,0.0,70,0.00,,,0.00,WeatherCatV1.15B25,2013-09-07 21:07:00,
2013-09-07 17:12:00,67.0,56.9,29.94,SW,219,0.0,0.0,70,0.00,,,0.00,WeatherCatV1.15B25,2013-09-07 21:12:00,
2013-09-07 17:17:00,67.0,56.9,29.94,SW,219,0.0,0.0,70,0.00,,,0.00,WeatherCatV1.15B25,2013-09-07 21:17:00,
2013-09-07 17:22:00,66.9,57.6,29.94,SW,219,0.0,0.0,72,0.00,,,0.00,WeatherCatV1.15B25,2013-09-07 21:22:00,
2013-09-07 17:27:00,66.8,57.5,29.94,SW,219,0.0,0.0,72,0.00,,,0.00,WeatherCatV1.15B25,2013-09-07 21:27:00,
2013-09-07 17:32:00,66.7,57.4,29.94,SW,219,0.0,0.0,72,0.00,,,0.00,WeatherCatV1.15B25,2013-09-07 21:32:00,
2013-09-07 17:37:00,66.6,58.0,29.94,SW,218,0.0,0.0,74,0.00,,,0.00,WeatherCatV1.15B25,2013-09-07 21:37:00,
2013-09-07 17:42:00,66.4,58.2,29.94,SW,219,0.0,0.0,75,0.00,,,0.00,WeatherCatV1.15B25,2013-09-07 21:42:00,
2013-09-07 17:47:00,66.2,57.7,29.94,SW,219,0.0,0.0,74,0.00,,,0.00,WeatherCatV1.15B25,2013-09-07 21:47:00,
2013-09-07 17:52:00,66.0,57.5,29.94,SW,219,0.0,0.0,74,0.00,,,0.00,WeatherCatV1.15B25,2013-09-07 21:52:00,
2013-09-07 17:57:00,65.8,57.6,29.94,SW,218,0.0,0.0,75,0.00,,,0.00,WeatherCatV1.15B25,2013-09-07 21:57:00,
2013-09-07 18:02:00,65.6,58.2,29.94,SW,219,0.0,0.0,77,0.00,,,0.00,WeatherCatV1.15B25,2013-09-07 22:02:00,
2013-09-07 18:07:00,65.5,58.1,29.93,SW,219,0.0,0.0,77,0.00,,,0.00,WeatherCatV1.15B25,2013-09-07 22:07:00,
2013-09-07 18:12:00,65.3,57.9,29.93,SW,219,0.0,0.0,77,0.00,,,0.00,WeatherCatV1.15B25,2013-09-07 22:12:00,
2013-09-07 18:17:00,65.1,58.1,29.93,SW,219,0.0,0.0,78,0.00,,,0.00,WeatherCatV1.15B25,2013-09-07 22:17:00,
2013-09-07 18:22:00,64.9,57.9,29.93,SW,219,0.0,0.0,78,0.00,,,0.00,WeatherCatV1.15B25,2013-09-07 22:22:00,
2013-09-07 18:27:00,64.7,57.0,29.93,SW,218,0.0,0.0,76,0.00,,,0.00,WeatherCatV1.15B25,2013-09-07 22:27:00,
2013-09-07 18:32:00,64.5,57.1,29.94,SW,218,0.0,0.0,77,0.00,,,0.00,WeatherCatV1.15B25,2013-09-07 22:32:00,
2013-09-07 18:37:00,64.5,57.1,29.93,SW,219,0.0,0.0,77,0.00,,,0.00,WeatherCatV1.15B25,2013-09-07 22:37:00,
2013-09-07 18:42:00,64.4,56.7,29.93,SW,219,0.0,0.0,76,0.00,,,0.00,WeatherCatV1.15B25,2013-09-07 22:42:00,
2013-09-07 18:47:00,64.3,56.9,29.93,SW,219,0.0,0.0,77,0.00,,,0.00,WeatherCatV1.15B25,2013-09-07 22:47:00,
2013-09-07 18:52:00,64.2,56.8,29.93,SW,218,0.0,0.0,77,0.00,,,0.00,WeatherCatV1.15B25,2013-09-07 22:52:00,
2013-09-07 18:57:00,64.1,56.7,29.93,SW,219,0.0,0.0,77,0.00,,,0.00,WeatherCatV1.15B25,2013-09-07 22:57:00,
2013-09-07 19:02:00,64.0,56.6,29.93,SW,219,0.0,0.0,77,0.00,,,0.00,WeatherCatV1.15B25,2013-09-07 23:02:00,
2013-09-07 19:07:00,64.0,55.9,29.93,SW,218,0.0,0.0,75,0.00,,,0.00,WeatherCatV1.15B25,2013-09-07 23:07:00,
2013-09-07 19:12:00,63.9,56.2,29.93,SW,218,0.0,0.0,76,0.00,,,0.00,WeatherCatV1.15B25,2013-09-07 23:12:00,
2013-09-07 19:17:00,63.9,56.2,29.93,SW,219,0.0,0.0,76,0.00,,,0.00,WeatherCatV1.15B25,2013-09-07 23:17:00,
2013-09-07 19:22:00,63.8,55.7,29.93,SW,219,0.0,0.0,75,0.00,,,0.00,WeatherCatV1.15B25,2013-09-07 23:22:00,
2013-09-07 19:27:00,63.8,55.3,29.93,SW,218,0.0,0.0,74,0.00,,,0.00,WeatherCatV1.15B25,2013-09-07 23:27:00,
2013-09-07 19:32:00,63.7,55.3,29.93,SW,219,0.0,0.0,74,0.00,,,0.00,WeatherCatV1.15B25,2013-09-07 23:32:00,
2013-09-07 19:37:00,63.6,55.5,29.93,SW,219,0.0,0.0,75,0.00,,,0.00,WeatherCatV1.15B25,2013-09-07 23:37:00,
2013-09-07 19:42:00,63.5,55.4,29.93,SW,219,0.0,0.0,75,0.00,,,0.00,WeatherCatV1.15B25,2013-09-07 23:42:00,
2013-09-07 19:47:00,63.3,56.0,29.93,SW,218,0.0,0.0,77,0.00,,,0.00,WeatherCatV1.15B25,2013-09-07 23:47:00,
2013-09-07 19:52:00,63.2,56.2,29.93,SW,219,0.0,0.0,78,0.00,,,0.00,WeatherCatV1.15B25,2013-09-07 23:52:00,
2013-09-07 19:57:00,63.2,56.2,29.93,SW,219,0.0,0.0,78,0.00,,,0.00,WeatherCatV1.15B25,2013-09-07 23:57:00,
2013-09-07 20:02:00,63.1,56.1,29.93,SW,219,0.0,0.0,78,0.00,,,0.00,WeatherCatV1.15B25,2013-09-08 00:02:00,
2013-09-07 20:07:00,63.1,56.5,29.93,SW,218,0.0,0.0,79,0.00,,,0.00,WeatherCatV1.15B25,2013-09-08 00:07:00,
2013-09-07 20:12:00,63.0,56.0,29.93,SW,219,0.0,0.0,78,0.00,,,0.00,WeatherCatV1.15B25,2013-09-08 00:12:00,
2013-09-07 20:17:00,63.0,57.4,29.92,SW,219,0.0,0.0,82,0.00,,,0.00,WeatherCatV1.15B25,2013-09-08 00:17:00,
2013-09-07 20:22:00,62.9,55.6,29.92,SW,219,0.0,0.0,77,0.00,,,0.00,WeatherCatV1.15B25,2013-09-08 00:22:00,
2013-09-07 20:27:00,63.1,55.0,29.92,SW,219,0.0,0.0,75,0.00,,,0.00,WeatherCatV1.15B25,2013-09-08 00:27:00,
2013-09-07 20:32:00,63.4,55.3,29.93,SW,223,0.0,0.0,75,0.00,,,0.00,WeatherCatV1.15B25,2013-09-08 00:32:00,
2013-09-07 20:37:00,63.7,57.1,29.93,SW,222,0.0,0.0,79,0.00,,,0.00,WeatherCatV1.15B25,2013-09-08 00:37:00,
2013-09-07 20:42:00,63.7,56.7,29.93,SSW,205,0.0,0.0,78,0.00,,,0.00,WeatherCatV1.15B25,2013-09-08 00:42:00,
2013-09-07 20:47:00,63.6,56.3,29.93,SSW,205,0.0,0.0,77,0.00,,,0.00,WeatherCatV1.15B25,2013-09-08 00:47:00,
2013-09-07 20:52:00,63.5,56.2,29.93,SSW,205,0.0,0.0,77,0.00,,,0.00,WeatherCatV1.15B25,2013-09-08 00:52:00,
2013-09-07 20:57:00,63.5,56.2,29.93,SSW,205,0.0,0.0,77,0.00,,,0.00,WeatherCatV1.15B25,2013-09-08 00:57:00,
2013-09-07 21:02:00,63.4,56.1,29.93,SSW,205,0.0,0.0,77,0.00,,,0.00,WeatherCatV1.15B25,2013-09-08 01:02:00,
2013-09-07 21:07:00,63.3,56.3,29.93,SSW,205,0.0,0.0,78,0.00,,,0.00,WeatherCatV1.15B25,2013-09-08 01:07:00,
2013-09-07 21:12:00,63.3,57.4,29.93,SSW,205,0.0,0.0,81,0.00,,,0.00,WeatherCatV1.15B25,2013-09-08 01:12:00,
2013-09-07 21:17:00,63.2,56.2,29.93,SSW,205,0.0,0.0,78,0.00,,,0.00,WeatherCatV1.15B25,2013-09-08 01:17:00,
2013-09-07 21:22:00,63.2,55.5,29.93,SSW,205,0.0,0.0,76,0.00,,,0.00,WeatherCatV1.15B25,2013-09-08 01:22:00,
2013-09-07 21:27:00,63.2,55.9,29.93,SSW,205,0.0,0.0,77,0.00,,,0.00,WeatherCatV1.15B25,2013-09-08 01:27:00,
2013-09-07 21:32:00,63.3,56.7,29.93,SSW,206,0.0,0.0,79,0.00,,,0.00,WeatherCatV1.15B25,2013-09-08 01:32:00,
2013-09-07 21:37:00,63.2,56.2,29.93,SSW,206,0.0,0.0,78,0.00,,,0.00,WeatherCatV1.15B25,2013-09-08 01:37:00,
2013-09-07 21:42:00,63.2,56.6,29.93,SSW,206,0.0,0.0,79,0.00,,,0.00,WeatherCatV1.15B25,2013-09-08 01:42:00,
2013-09-07 21:47:00,63.1,56.5,29.93,SSW,206,0.0,0.0,79,0.00,,,0.00,WeatherCatV1.15B25,2013-09-08 01:47:00,
2013-09-07 21:52:00,63.0,56.4,29.93,SSW,206,0.0,0.0,79,0.00,,,0.00,WeatherCatV1.15B25,2013-09-08 01:52:00,
2013-09-07 21:57:00,62.8,56.2,29.92,SSW,206,0.0,0.0,79,0.00,,,0.00,WeatherCatV1.15B25,2013-09-08 01:57:00,
2013-09-07 22:02:00,62.6,56.0,29.92,SSW,206,0.0,0.0,79,0.00,,,0.00,WeatherCatV1.15B25,2013-09-08 02:02:00,
2013-09-07 22:07:00,62.4,55.1,29.92,SSW,206,0.0,0.0,77,0.00,,,0.00,WeatherCatV1.15B25,2013-09-08 02:07:00,
2013-09-07 22:12:00,62.3,55.3,29.92,SSW,206,0.0,0.0,78,0.00,,,0.00,WeatherCatV1.15B25,2013-09-08 02:12:00,
2013-09-07 22:17:00,62.2,55.3,29.92,SSW,206,0.0,0.0,78,0.00,,,0.00,WeatherCatV1.15B25,2013-09-08 02:17:00,
2013-09-07 22:22:00,62.2,54.9,29.92,SSW,206,0.0,0.0,77,0.00,,,0.00,WeatherCatV1.15B25,2013-09-08 02:22:00,
2013-09-07 22:27:00,62.1,54.8,29.92,SSW,206,0.0,0.0,77,0.00,,,0.00,WeatherCatV1.15B25,2013-09-08 02:27:00,
2013-09-07 22:32:00,62.1,54.8,29.92,SSW,206,0.0,0.0,77,0.00,,,0.00,WeatherCatV1.15B25,2013-09-08 02:32:00,
2013-09-07 22:37:00,62.1,54.4,29.92,SSW,206,0.0,0.0,76,0.00,,,0.00,WeatherCatV1.15B25,2013-09-08 02:37:00,
2013-09-07 22:42:00,62.1,54.8,29.91,SSW,206,0.0,0.0,77,0.00,,,0.00,WeatherCatV1.15B25,2013-09-08 02:42:00,
2013-09-07 22:47:00,62.2,54.5,29.91,SSW,206,0.0,0.0,76,0.00,,,0.00,WeatherCatV1.15B25,2013-09-08 02:47:00,
2013-09-07 22:52:00,62.2,54.9,29.91,SSW,206,0.0,0.0,77,0.00,,,0.00,WeatherCatV1.15B25,2013-09-08 02:52:00,
2013-09-07 22:57:00,62.2,54.9,29.90,SSW,206,0.0,0.0,77,0.00,,,0.00,WeatherCatV1.15B25,2013-09-08 02:57:00,
2013-09-07 23:02:00,62.2,54.9,29.90,SSW,206,0.0,0.0,77,0.00,,,0.00,WeatherCatV1.15B25,2013-09-08 03:02:00,
2013-09-07 23:07:00,62.2,54.2,29.90,SSW,206,0.0,0.0,75,0.00,,,0.00,WeatherCatV1.15B25,2013-09-08 03:07:00,
2013-09-07 23:12:00,62.3,54.3,29.91,SSW,200,0.0,0.0,75,0.00,,,0.00,WeatherCatV1.15B25,2013-09-08 03:12:00,
2013-09-07 23:17:00,62.4,55.4,29.90,SSW,200,0.0,0.0,78,0.00,,,0.00,WeatherCatV1.15B25,2013-09-08 03:17:00,
2013-09-07 23:22:00,62.4,55.4,29.90,SSW,199,0.0,0.0,78,0.00,,,0.00,WeatherCatV1.15B25,2013-09-08 03:22:00,
2013-09-07 23:27:00,62.4,56.1,29.90,SSW,200,0.0,0.0,80,0.00,,,0.00,WeatherCatV1.15B25,2013-09-08 03:27:00,
2013-09-07 23:32:00,62.3,56.0,29.90,SSW,200,0.0,0.0,80,0.00,,,0.00,WeatherCatV1.15B25,2013-09-08 03:32:00,
2013-09-07 23:37:00,62.2,56.3,29.90,SSW,200,0.0,0.0,81,0.00,,,0.00,WeatherCatV1.15B25,2013-09-08 03:37:00,
2013-09-07 23:42:00,62.1,56.2,29.90,SSW,200,0.0,0.0,81,0.00,,,0.00,WeatherCatV1.15B25,2013-09-08 03:42:00,
2013-09-07 23:47:00,62.0,55.8,29.89,SSW,200,0.0,0.0,80,0.00,,,0.00,WeatherCatV1.15B25,2013-09-08 03:47:00,
2013-09-07 23:52:00,62.0,55.4,29.89,SSW,200,0.0,0.0,79,0.00,,,0.00,WeatherCatV1.15B25,2013-09-08 03:52:00,
2013-09-07 23:57:00,62.0,55.8,29.89,SSW,199,0.0,0.0,80,0.00,,,0.00,WeatherCatV1.15B25,2013-09-08 03:57:00,